Change the Weather History Date:

Sunday, September 23, 2012

  Actual Average Record
Temperature  
Mean Temperature 40 °F -  
Max Temperature 53 °F 60 °F 82 °F (2007)
Min Temperature 26 °F 38 °F 26 °F (2005)
Degree Days  
Heating Degree Days 26    
Moisture  
Dew Point 29 °F    
Average Humidity 69    
Maximum Humidity 100    
Minimum Humidity 38    
Precipitation  
Precipitation 0.00 in - - ()
Sea Level Pressure  
Sea Level Pressure 30.18 in    
Wind  
Wind Speed 3 mph (West)    
Max Wind Speed 12 mph    
Max Gust Speed 17 mph    
Visibility 10 miles    
Events      
Averages and records for this station are not official NWS values.
T = Trace of Precipitation, MM = Missing Value Source: NWS Daily Summary

Daily Weather History Graph

Daily Weather History Graph

Search for Another Location

Airport or City:

Trip Planner

Search our weather history database for the weather conditions in past years. The results will help you decide how hot, cold, wet, or windy it might be!

Date:

Astronomy

Sep. 23, 2012 Rise Set
Actual Time 6:59 AM CDT 7:05 PM CDT
Civil Twilight 6:28 AM CDT 7:36 PM CDT
Nautical Twilight 5:52 AM CDT 8:12 PM CDT
Astronomical Twilight 5:14 AM CDT 8:49 PM CDT
Moon 3:29 PM CDT (9/23) No Moon Set
Length of Visible Light 13h 07m
Length of Day
12h 05m
First Quarter, 60% of the Moon is Illuminated
Sep 23
First Quarter
Sep 29
Full
Oct 8
Last Quarter
Oct 15
New
Oct 21
First Quarter

Hourly Weather History & Observations

Time (CDT) Temp. Windchill Dew Point Humidity Pressure Visibility Wind Dir Wind Speed Gust Speed Precip Events Conditions
12:16 AM 33.8 °F - 28.4 °F 81% 30.19 in 10.0 mi Calm Calm - N/A   Clear
12:37 AM 33.8 °F - 28.4 °F 81% 30.19 in 10.0 mi Calm Calm - N/A   Clear
12:56 AM 33.8 °F - 28.4 °F 81% 30.19 in 10.0 mi Calm Calm - N/A   Clear
1:17 AM 32.0 °F 28.7 °F 28.4 °F 87% 30.19 in 10.0 mi West 3.5 mph - N/A   Clear
1:37 AM 30.2 °F 26.7 °F 28.4 °F 93% 30.20 in 10.0 mi West 3.5 mph - N/A   Clear
1:56 AM 30.2 °F - 28.4 °F 93% 30.20 in 10.0 mi Calm Calm - N/A   Clear
2:17 AM 30.2 °F - 28.4 °F 93% 30.20 in 10.0 mi Calm Calm - N/A   Clear
2:37 AM 28.4 °F - 28.4 °F 100% 30.19 in 10.0 mi Calm Calm - N/A   Clear
2:56 AM 28.4 °F - 28.4 °F 100% 30.20 in 10.0 mi Calm Calm - N/A   Clear
3:17 AM 28.4 °F - 28.4 °F 100% 30.20 in 10.0 mi Calm Calm - N/A   Clear
3:36 AM 28.4 °F - 26.6 °F 93% 30.20 in 10.0 mi Calm Calm - N/A   Clear
3:57 AM 28.4 °F - 28.4 °F 100% 30.20 in 10.0 mi Calm Calm - N/A   Clear
4:16 AM 28.4 °F - 28.4 °F 100% 30.20 in 10.0 mi Calm Calm - N/A   Clear
4:37 AM 28.4 °F - 26.6 °F 93% 30.21 in 10.0 mi Calm Calm - N/A   Clear
4:56 AM 28.4 °F - 26.6 °F 93% 30.21 in 10.0 mi Calm Calm - N/A   Clear
5:17 AM 26.6 °F - 26.6 °F 100% 30.22 in 10.0 mi Calm Calm - N/A   Clear
5:37 AM 28.4 °F - 26.6 °F 93% 30.22 in 10.0 mi Calm Calm - N/A   Clear
5:56 AM 26.6 °F - 26.6 °F 100% 30.22 in 10.0 mi Calm Calm - N/A   Clear
6:16 AM 26.6 °F - 26.6 °F 100% 30.22 in 10.0 mi Calm Calm - N/A   Clear
6:37 AM 26.6 °F - 26.6 °F 100% 30.22 in 10.0 mi Calm Calm - N/A   Clear
6:56 AM 26.6 °F - 26.6 °F 100% 30.23 in 10.0 mi Calm Calm - N/A   Clear
7:16 AM 26.6 °F 22.6 °F 26.6 °F 100% 30.23 in 10.0 mi West 3.5 mph - N/A   Clear
7:36 AM 26.6 °F - 26.6 °F 100% 30.24 in 10.0 mi Calm Calm - N/A   Clear
7:57 AM 28.4 °F 24.6 °F 26.6 °F 93% 30.25 in 10.0 mi West 3.5 mph - N/A   Clear
8:16 AM 28.4 °F - 28.4 °F 100% 30.25 in 10.0 mi Calm Calm - N/A   Clear
8:36 AM 30.2 °F 26.7 °F 30.2 °F 100% 30.25 in 10.0 mi WNW 3.5 mph - N/A   Clear
8:57 AM 33.8 °F 29.6 °F 30.2 °F 87% 30.25 in 10.0 mi West 4.6 mph - N/A   Scattered Clouds
9:17 AM 35.6 °F 31.7 °F 32.0 °F 87% 30.25 in 10.0 mi West 4.6 mph - N/A   Clear
9:36 AM 37.4 °F 33.8 °F 32.0 °F 81% 30.25 in 10.0 mi West 4.6 mph - N/A   Clear
9:57 AM 39.2 °F 35.0 °F 32.0 °F 75% 30.25 in 10.0 mi WNW 5.8 mph - N/A   Clear
10:16 AM 41.0 °F 38.0 °F 32.0 °F 70% 30.24 in 10.0 mi WNW 4.6 mph - N/A   Clear
10:36 AM 42.8 °F 38.6 °F 32.0 °F 66% 30.24 in 10.0 mi WNW 6.9 mph - N/A   Clear
10:57 AM 44.6 °F 40.7 °F 30.2 °F 57% 30.25 in 10.0 mi NW 6.9 mph - N/A   Clear
11:16 AM 44.6 °F 40.2 °F 32.0 °F 61% 30.25 in 10.0 mi West 8.1 mph - N/A   Clear
11:37 AM 44.6 °F 40.2 °F 30.2 °F 57% 30.24 in 10.0 mi WNW 8.1 mph - N/A   Clear
11:56 AM 46.4 °F 43.5 °F 30.2 °F 53% 30.24 in 10.0 mi West 5.8 mph - N/A   Clear
12:17 PM 46.4 °F 42.9 °F 30.2 °F 53% 30.24 in 10.0 mi NW 6.9 mph - N/A   Clear
12:36 PM 48.2 °F - 30.2 °F 50% 30.24 in 10.0 mi WNW 6.9 mph - N/A   Scattered Clouds
12:57 PM 48.2 °F - 30.2 °F 50% 30.23 in 10.0 mi West 6.9 mph - N/A   Clear
1:16 PM 48.2 °F - 30.2 °F 50% 30.23 in 10.0 mi West 4.6 mph - N/A   Clear
1:37 PM 50.0 °F - 30.2 °F 47% 30.22 in 10.0 mi WNW 11.5 mph - N/A   Scattered Clouds
1:56 PM 51.8 °F - 30.2 °F 44% 30.22 in 10.0 mi WNW 9.2 mph 16.1 mph N/A   Scattered Clouds
2:17 PM 51.8 °F - 32.0 °F 47% 30.21 in 10.0 mi WNW 6.9 mph - N/A   Scattered Clouds
2:36 PM 51.8 °F - 30.2 °F 44% 30.20 in 10.0 mi WNW 5.8 mph - N/A   Clear
2:57 PM 51.8 °F - 30.2 °F 44% 30.19 in 10.0 mi West 6.9 mph - N/A   Clear
3:17 PM 53.6 °F - 30.2 °F 41% 30.18 in 10.0 mi West 11.5 mph 17.3 mph N/A   Clear
3:36 PM 53.6 °F - 28.4 °F 38% 30.17 in 10.0 mi WSW 8.1 mph - N/A   Clear
3:56 PM 53.6 °F - 30.2 °F 41% 30.17 in 10.0 mi West 5.8 mph - N/A   Clear
4:17 PM 53.6 °F - 30.2 °F 41% 30.16 in 10.0 mi WSW 4.6 mph 9.2 mph N/A   Clear
4:36 PM 53.6 °F - 30.2 °F 41% 30.16 in 10.0 mi West 10.4 mph - N/A   Clear
4:57 PM 53.6 °F - 30.2 °F 41% 30.16 in 10.0 mi West 9.2 mph - N/A   Clear
5:16 PM 53.6 °F - 28.4 °F 38% 30.15 in 10.0 mi West 8.1 mph - N/A   Clear
5:37 PM 53.6 °F - 28.4 °F 38% 30.14 in 10.0 mi WNW 8.1 mph - N/A   Clear
5:57 PM 53.6 °F - 28.4 °F 38% 30.14 in 10.0 mi West 8.1 mph - N/A   Clear
6:16 PM 51.8 °F - 26.6 °F 38% 30.13 in 10.0 mi West 5.8 mph - N/A   Clear
6:37 PM 51.8 °F - 28.4 °F 41% 30.13 in 10.0 mi West 4.6 mph - N/A   Clear
6:57 PM 50.0 °F - 28.4 °F 43% 30.12 in 10.0 mi WSW 3.5 mph - N/A   Clear
7:16 PM 48.2 °F - 28.4 °F 46% 30.11 in 10.0 mi West 3.5 mph - N/A   Clear
7:37 PM 46.4 °F - 28.4 °F 50% 30.11 in 10.0 mi Calm Calm - N/A   Clear
7:56 PM 42.8 °F - 30.2 °F 61% 30.11 in 10.0 mi Calm Calm - N/A   Clear
8:16 PM 39.2 °F 37.0 °F 28.4 °F 65% 30.10 in 10.0 mi SW 3.5 mph - N/A   Clear
8:37 PM 41.0 °F - 28.4 °F 61% 30.10 in 10.0 mi Calm Calm - N/A   Clear
8:56 PM 41.0 °F 39.0 °F 28.4 °F 61% 30.09 in 10.0 mi SW 3.5 mph - N/A   Clear
9:17 PM 41.0 °F 39.0 °F 26.6 °F 57% 30.08 in 10.0 mi SW 3.5 mph - N/A   Clear
9:36 PM 39.2 °F - 26.6 °F 61% 30.07 in 10.0 mi Calm Calm - N/A   Clear
9:57 PM 37.4 °F - 28.4 °F 70% 30.07 in 10.0 mi Calm Calm - N/A   Clear
10:17 PM 39.2 °F - 28.4 °F 65% 30.07 in 10.0 mi Calm Calm - N/A   Clear
10:36 PM 37.4 °F 33.8 °F 28.4 °F 70% 30.05 in 10.0 mi SW 4.6 mph - N/A   Clear
10:57 PM 39.2 °F 37.0 °F 26.6 °F 61% 30.05 in 10.0 mi SW 3.5 mph - N/A   Clear
11:16 PM 39.2 °F 37.0 °F 28.4 °F 65% 30.05 in 10.0 mi SW 3.5 mph - N/A   Clear
11:37 PM 41.0 °F 37.1 °F 28.4 °F 61% 30.03 in 10.0 mi SW 5.8 mph - N/A   Clear
11:57 PM 41.0 °F 38.0 °F 28.4 °F 61% 30.02 in 10.0 mi SW 4.6 mph - N/A   Clear